Regional Weather Roundup
Issued by NWS

Home | Current Version | Previous Version | Text Only | Print | Product List | Glossary Off
Versions: 1 2 3 4 5 6 7 8 9 10 11 12 13 14 15 16 17 18 19 20 21 22 23 24 25 26 27 28 29 30 31 32 33 34 35 36 37 38 39 40 41 42 43 44 45 46 47 48 49 50

000
ASUS45 KBOI 311510
RWRID
WEATHER ROUNDUP FOR IDAHO
NATIONAL WEATHER SERVICE BOISE ID
800 AM MST SAT JAN 31 2015

NOTE: "FAIR" INDICATES FEW OR NO CLOUDS BELOW 12000 FEET
WITH NO SIGNIFICANT WEATHER AND/OR OBSTRUCTIONS TO VISIBILITY

IDZ012-014-311600-
SOUTHWEST IDAHO


CITY           SKY/WX    TMP DP  RH WIND       PRES   REMARKS
BOISE          CLEAR     24  22  91 CALM      30.14S
CALDWELL       CLOUDY    21  16  79 CALM      30.18R VSB 1/2
MOUNTAIN HOME  FRZ DRZL  24  23  96 E1        30.13F VSB<1/4
$$

IDZ016-017-311600-
SOUTHCENTRAL IDAHO


CITY           SKY/WX    TMP DP  RH WIND       PRES   REMARKS
BURLEY         CLOUDY    33  28  81 SW6       30.10S WCI  28
JEROME         CLOUDY    32  28  85 S6        30.11S WCI  26
TWIN FALLS     MOCLDY    32  27  81 S8        30.11S WCI  25
$$

IDZ019>023-311600-
SOUTHEAST IDAHO


CITY           SKY/WX    TMP DP  RH WIND       PRES   REMARKS
IDAHO FALLS    CLOUDY    28  26  92 CALM      30.10R
POCATELLO      CLOUDY    31  30  96 SW12      30.11R WCI  22
REXBURG        CLOUDY    23  22  96 E3        30.08F
$$

IDZ006-010-011-018-031-032-311600-
CENTRAL IDAHO MOUNTAINS


CITY           SKY/WX    TMP DP  RH WIND       PRES   REMARKS
MCCALL         CLEAR     11   7  84 E3        30.10S
HAILEY         PTCLDY    18   9  68 NW7       30.09S WCI   8
STANLEY          N/A     -5 -12  72 CALM      30.17S
SALMON         CLOUDY    25  19  80 CALM      30.21S
CHALLIS        CLOUDY    22  17  81 N5        30.18S WCI  16
$$

IDZ002-004-006-007-026-311600-
NORTHERN IDAHO


CITY           SKY/WX    TMP DP  RH WIND       PRES   REMARKS
LEWISTON       FLURRIES  34  32  92 SW5       30.30R WCI  30
LOWELL           N/A     33  30  88 CALM      30.31R
COEUR D`ALENE  CLOUDY    30  27  86 SW7       30.24R WCI  23
MULLAN PASS    FOG       21  17  84 N5        30.06R VSB 3/4 WCI  15
$$


USA.gov is the U.S. government's official web portal to all federal, state and local government web resources and services.